Home > Weather > Kerman > Past weeks

Flag for Iran Past Weather in Kerman, Iran — Yesterday and Last 2 Weeks

Now
88 °F

Sunny.


Feels Like: 84 °F
Forecast: 47 / 87 °F
Wind: 7 mph from North

Location: Kerman Airport

Current Time: Aug 25, 2016 at 4:16:47 PM

Latest Report: Aug 25, 2016 at 3:30 PM


Visibility: 10 mi

Pressure: 30.09 "Hg (24.69 "Hg at 1762m altitude)

Humidity: 5%

Dew Point: 9 °F

Location of KermanLocation

Past Weather in Kerman — Graph

°F

Kerman Temperature Yesterday

Maximum temperature yesterday: 86 °F (at 3:30 PM)
Minimum temperature yesterday: 52 °F (at 5:30 AM)
Average temperature yesterday: 73 °F

High & Low Weather Summary for the Past Weeks

 TemperatureHumidityPressure
High93 °F (Aug 12, 3:30 PM)27% (Aug 14, 6:30 AM)30.18 "Hg (Aug 14, 6:30 AM)
Low52 °F (Aug 20, 6:30 AM)2% (Aug 12, 4:30 PM)29.92 "Hg (Aug 17, 5:30 PM)
Average76 °F11%30.06 "Hg
* Reported Aug 10 2:30 PM — Aug 25 2:30 PM, Kerman, Weather by CustomWeather, © 2016

Note: Actual official high and low records may vary slightly from our data, if they occured in-between our weather recording intervals... More about our weather records

Advertising

Kerman Weather History for the Previous 24 Hours

Scroll right to see more
 ConditionsComfort  
Time TempWeatherWind HumidityBarometerVisibility
2:30 PM
Thu, Aug 25
86 °FSunny.7 mph6%30.09 "Hg10 mi
1:30 PM84 °FSunny.5 mph8%30.12 "Hg10 mi
12:30 PM81 °FSunny.7 mph11%30.12 "Hg10 mi
11:30 AM79 °FSunny.7 mph12%30.15 "Hg10 mi
10:30 AM77 °FSunny.7 mph14%30.15 "Hg10 mi
9:30 AM75 °FSunny.No wind13%30.18 "Hg10 mi
8:30 AM70 °FSunny.5 mph18%30.15 "Hg10 mi
7:30 AM57 °FClear.5 mph21%30.15 "Hg10 mi
6:30 AM54 °FClear.5 mph24%30.12 "Hg10 mi
5:30 AM54 °FClear.7 mph26%30.09 "Hg10 mi
4:30 AM64 °FClear.7 mph19%30.09 "Hg10 mi
3:30 AM68 °FClear.7 mph17%30.09 "Hg10 mi
2:30 AM68 °FClear.9 mph17%30.09 "Hg10 mi
1:30 AM70 °FClear.12 mph16%30.09 "Hg10 mi
12:30 AM70 °FClear.9 mph13%30.09 "Hg10 mi
11:30 PM
Wed, Aug 24
70 °FClear.7 mph13%30.09 "Hg10 mi
10:30 PM72 °FClear.7 mph13%30.09 "Hg10 mi
9:30 PM73 °FClear.7 mph12%30.09 "Hg10 mi
8:30 PM79 °FSunny.9 mph8%30.04 "Hg10 mi
7:30 PM81 °FSunny.9 mph6%30.04 "Hg10 mi
6:30 PM84 °FSunny.12 mph5%30.01 "Hg10 mi
5:30 PM86 °FPassing clouds.9 mph5%30.01 "HgN/A
4:30 PM86 °FSunny.12 mph4%30.01 "Hg10 mi
Weather by CustomWeather, © 2016

See weather overviewHow to use our weather pages